Weather Service Report


643 
FPUS83 KFGF 261031
OPUFGF
PRAIRIE TO PINES WEATHER ROUNDUP
NATIONAL WEATHER SERVICE EASTERN NORTH DAKOTA/GRAND FORKS ND
500 AM CDT WED JUL 26 2017

 **SATELLITE DATA USED TO AUGMENT SKY COVER AT AUTOMATED STATIONS**
 *****  WEATHER ACROSS EASTERN NORTH DAKOTA  *****
  
CITY           SKY/WX    TMP DP  RH WIND       PRES   REMARKS
GRAND FORKS    FAIR      62  59  90 W6        29.99R                  
GRAND FORKS AF FAIR      63  58  84 NW7       30.00R                  
GRAND CITY NWS NOT AVBL                                               
BUXTON           N/A     61  60  97 NW8         N/A                   
DEVILS LAKE    FAIR      61  57  87 NW8       30.06R                  
FARGO          FAIR      61  58  90 S8        30.00R                  
WAHPETON ARPT  FAIR      63  59  88 N3        30.00S                  
$$

 *****  WEATHER ACROSS CENTRAL AND WESTERN NORTH DAKOTA  *****
  
CITY           SKY/WX    TMP DP  RH WIND       PRES   REMARKS
JAMESTOWN      FAIR      60  56  86 NW8       30.03S                  
BISMARCK       FAIR      61  56  83 CALM      30.08S                  
MINOT          FAIR      59  54  83 CALM      30.09R                  
MINOT AFB      FAIR      53  51  92 W3        30.09R                  
GARRISON         N/A     57  54  89 N6        30.10R                  
WILLISTON      FAIR      59  49  69 CALM      30.12S                  
DICKINSON      FAIR      58  49  72 NE7       30.10S                  
HETTINGER      MOCLDY    58  53  84 CALM      30.12S                  
$$

 *****  OTHER OBSERVATIONS NORTHEAST NORTH DAKOTA  *****
  
CITY           SKY/WX    TMP DP  RH WIND       PRES   REMARKS
WALHALLA       NOT AVBL                                               
LANGDON        FAIR      55  55 100 W6        30.05R                  
CAVALIER       FAIR      61  57  88 W8        30.00R                  
GRAFTON        FAIR      63  61  94 W9        30.02S                  
CANDO          NOT AVBL                                               
FORT TOTTEN      N/A     60  58  92 CALM      29.95S                  
ROLLA            N/A     59  59 100 NW10      30.07S                  
RUGBY          NOT AVBL                                               
 ***** THE ABOVE OBSERVATIONS ARE NON NWS ARE NOT QUALITY
        CONTROLLED AND MAY MIS-REPORT RAIN FOR SNOW...
$$

 *****  OTHER OBSERVATIONS SOUTHEAST NORTH DAKOTA *****
  
CITY           SKY/WX    TMP DP  RH WIND       PRES   REMARKS
COOPERSTOWN    FAIR      59  59 100 W9        30.04S                  
VALLEY CITY    FAIR      61  61 100 VRB3      30.04S                  
OAKES          NOT AVBL                                               
GWINNER        SUNNY     61  59  94 CALM      30.01F                  
SHEYENNE NWR     N/A     62  61  97 W2        29.95S                  
BUFFALO          N/A     61  55  82 NE5         N/A                   
WYNDMERE       NOT AVBL                                               
 ***** THE ABOVE OBSERVATIONS ARE NON NWS ARE NOT QUALITY
       CONTROLLED AND MAY MIS-REPORT RAIN FOR SNOW...
$$

  *****  WEATHER ACROSS NORTHERN MINNESOTA  *****     
  
CITY           SKY/WX    TMP DP  RH WIND       PRES   REMARKS
FLAG ISLAND    FAIR      63  57  82 W10       29.93R                  
WARROAD        FAIR      59  55  88 W7        29.97R                  
ROSEAU         FAIR      61  55  82 W9        29.97R                  
HALLOCK        FAIR      57  57 100 CALM      29.99R                  
THF RVR FALLS  FAIR      60  57  89 W7        30.01R                  
HALSTAD          N/A     56  55  96 NW6         N/A                   
FOSSTON        FAIR      57  55  94 NW7       30.00R                  
BAUDETTE       FAIR      59  56  89 W5        29.95R                  
WASKISH        FAIR      66  59  77 NW12G18   29.97S                  
CROOKSTON      FAIR      59  55  88 NW3       30.00S                  
$$
  *****  WEATHER ACROSS CENTRAL AND WEST MINNESOTA  *****     
  
CITY           SKY/WX    TMP DP  RH WIND       PRES   REMARKS
BEMIDJI        FAIR      58  55  88 W6        29.98S                  
PARK RAPIDS    FAIR      61  57  87 S7        30.01R                  
WADENA         FAIR      61  61 100 NW3       30.00F                  
DETROIT LAKES  FAIR      63  57  82 CALM      30.02F                  
MOORHEAD       FAIR      63  57  82 CALM      30.01S                  
FERGUS FALLS   FAIR      66  57  72 CALM      29.99S                  
ELBOW LAKE     FAIR      67  62  84 CALM      30.00S                  
MORRIS MN      FAIR      72  70  94 N7        29.97R                  
STAPLES        FAIR      63  61  94 CALM      30.00F                  
WHEATON        FAIR      70  63  78 N5        30.01R                  
$$
  *****  WEATHER ELSEWHERE ACROSS MINNESOTA  *****     
  
CITY           SKY/WX    TMP DP  RH WIND       PRES   REMARKS
DULUTH         FAIR      65  64  97 NW5       29.94R                  
INTRNTL FALLS  FAIR      58  55  90 W5        29.94R                  
ELY            FAIR      61  57  88 W5        29.94R                  
CLOQUET        FAIR      66  63  88 NW7       29.95S                  
BRAINERD       FAIR      68  64  87 W5        29.99R                  
HIBBING        FAIR      59  59 100 CALM      29.95R                  
ALEXANDRIA     FAIR      69  65  86 N7        30.01F                  
SAINT CLOUD    FAIR      70  70 100 NW6       29.96F                  
MINNEAPOLIS    LGT RAIN  73  70  90 E6        29.98F                  
$$

  *****  WEATHER ACROSS SOUTH DAKOTA  *****
  
CITY           SKY/WX    TMP DP  RH WIND       PRES   REMARKS
SIOUX FALLS    LGT RAIN  72  71  97 NE6       29.97F                  
BROOKINGS      NOT AVBL                                               
WATERTOWN      MOCLDY    70  67  90 NE8       30.00R                  
HURON          FAIR      69  68  96 NW8       29.97R                  
SISSETON         N/A     69  65  86 NW7       29.99S                  
ABERDEEN       FAIR      71  68  90 N9        30.00S                  
MITCHELL       FAIR      70  68  93 E3        29.97R                  
PIERRE         FAIR      71  67  87 N12       29.98S                  
MOBRIDGE       FAIR      68  62  81 N3        30.02R                  
RAPID CITY     CLOUDY    69  52  54 N12       30.12R                  
$$

  *****  SOME WEATHER IN NEARBY STATES *****
  
CITY           SKY/WX    TMP DP  RH WIND       PRES   REMARKS
GLASGOW MT     FAIR      58  44  60 E7        30.11R                  
GREAT FALLS MT FAIR      55  39  54 W8        30.12R                  
CHEYENNE WY    CLOUDY    62  57  83 N8        30.26R                  
SCOTTSBLUFF NE CLOUDY    71  60  68 N5        30.12R                  
OMAHA NE       CLOUDY    81  73  76 SE14      29.93S                  
DES MOINES IA  CLOUDY    76  69  79 SE9       29.97F                  
DAVENPORT IA   FAIR      71  66  84 S10       30.06F                  
CHICAGO IL     MOCLDY    66  59  78 S8        30.10F                  
EAU CLAIRE WI  FAIR      71  69  93 S5        29.97R                  
LA CROSSE WI   MOCLDY    75  70  84 S7        29.99R                  
$$

  *****  SOME NATIONAL WEATHER *****
  
CITY           SKY/WX    TMP DP  RH WIND       PRES   REMARKS
LA GUARDIA NY  FAIR      65  59  81 NE7       30.23R                  
RALEIGH NC     MOCLDY    74  65  73 NE5       30.18R                  
ATLANTA GA     FAIR      74  72  93 NW5       30.11S                  
NEW ORLEANS LA MOCLDY    79  76  90 W6        30.11S                  
OKLAHOMA CITY  FAIR      76  69  79 S9        30.02F                  
ALBUQUERQUE NM FAIR      72  56  57 SE3       30.23R                  
SALT LAKE CITY TSTM      69  66  90 E7        30.17R                  
LOS ANGELES CA FAIR      68  63  84 W8        30.00S                  
BOISE ID       FAIR      79  51  37 SE7       30.04R                  
SEATTLE WA     FAIR      63  54  72 CALM      30.04R                  
$$

*** WEATHER ACROSS MANITOBA...SASKATCHEWAN AND ONTARIO ***
                ***ONTARIO***
  
CITY           SKY/WX    TMP DP  RH WIND       PRES   REMARKS
GERALDTON      PTCLDY    61  59  94 W3        29.77S                  
THUNDER BAY    MOCLDY    64  64 100 W6        29.84R                  
SIOUX LOOKOUT  PTCLDY    61  55  82 W5        29.85S                  
TORONTO        PTCLDY    61  55  82 SW2       30.20S                  
BIG TROUT LK   CLOUDY    61  61 100 W9        29.56S                  
PICKLE LAKE    NOT AVBL                                               
DRYDEN         CLEAR     61  55  82 W12       29.88S                  
KENORA         PTCLDY    59  57  94 W6        29.93R                  
$$      
                *** MANITOBA***
  
CITY           SKY/WX    TMP DP  RH WIND       PRES   REMARKS
BRANDON        PTCLDY    55  54  94 NW7       30.04R                  
DAUPHIN        CLEAR     59  57  94 W8        30.01S                  
ISLAND LAKE    NOT AVBL                                               
PILOT MOUND      N/A     57  55  94 W5          N/A                   
THE PAS        PTCLDY    63  55  77 W6        29.95R                  
THOMPSON       CLEAR     57  55  94 NW3       29.84R                  
WINNIPEG       CLEAR     57  57 100 W8        29.96R                  
LYNN LAKE      MOCLDY    57  55  94 NW8       29.92R                  
CHURCHILL      FOG       54  54 100 N16G23    29.73R VSB 1/4          
GILLAM         MOCLDY    61  59  94 N13       29.73R                  
$$
                ***SASKATCHEWAN***
  
CITY           SKY/WX    TMP DP  RH WIND       PRES   REMARKS
ESTEVAN        CLEAR     52  52 100 SW3       30.12R                  
KINDERSLEY     PTCLDY    50  46  87 E2        30.11R                  
LLOYDMINSTER   CLEAR     54  50  87 SW8       30.09R                  
PRINCE ALBERT  MOCLDY    54  52  94 W5        30.07R                  
REGINA         CLEAR     52  50  93 S3        30.12R                  
YORKTON        CLEAR     55  54  94 W7        30.07R   

Return to Home page


Western Regional Climate Center, wrcc@dri.edu